Theta_e
327 327 327 328 329 329 334 340 340 340 340 339 338 337 338 338 338 336 337 339 339 337 334 333 333 334 334 334 334 335 335 337 337 339 340 340 340 340 338 337 337 336 337 336 335 337 335 334 333 332 332 333 332 332 333 333 334 333 331 331 330 329 331 334 334 332 328 325 325 325 328 333 333 332 333 331 331 331 333 332 331 331 331 331 330
326 327 329 330 330 331 332 338 340 337 338 339 337 338 339 339 337 337 337 336 336 336 334 334 334 333 333 332 332 335 337 337 337 339 339 341 340 340 339 338 338 337 337 335 337 335 334 333 332 333 333 333 333 333 332 334 333 333 331 329 331 330 329 332 332 329 323 322 319 319 321 324 328 330 331 332 332 331 331 332 330 330 331 331 331
328 329 331 330 330 335 338 338 338 338 339 338 338 338 338 337 337 336 335 336 335 337 336 335 334 335 333 333 332 333 335 338 338 339 340 339 339 339 339 339 339 338 337 336 336 336 335 334 333 333 333 333 333 333 333 332 332 332 332 330 328 330 331 333 332 329 323 324 323 319 316 317 321 324 327 330 331 330 330 331 331 330 331 331 331
326 327 329 331 333 335 335 335 337 338 337 337 337 337 337 336 335 335 334 336 336 337 335 335 336 335 333 333 333 333 332 334 334 335 335 337 338 339 339 339 336 335 335 335 335 337 336 335 334 333 333 334 333 332 331 332 332 332 332 331 330 327 328 329 333 330 327 324 316 316 318 319 314 319 321 325 330 328 329 329 330 330 330 330 331
325 324 324 326 327 329 332 335 337 336 336 336 336 337 337 334 335 336 334 337 336 336 336 335 334 333 333 333 333 333 334 332 331 332 333 335 338 336 337 335 335 335 333 333 334 336 337 337 335 334 333 333 333 332 331 332 332 332 332 331 330 329 327 328 331 330 328 328 323 317 315 314 315 318 322 321 327 327 327 328 330 329 329 329 329
323 322 322 324 325 327 329 333 334 334 334 336 337 339 338 337 336 337 335 335 338 337 337 335 335 331 331 330 328 328 327 329 329 331 332 333 334 336 336 335 335 334 334 333 333 336 336 336 336 334 333 332 332 332 333 332 332 332 332 331 330 331 329 327 328 330 329 329 328 324 321 316 317 321 321 314 323 325 326 326 328 329 329 329 329
323 325 325 325 324 327 329 331 332 331 332 334 334 335 336 336 337 338 337 338 338 338 338 335 332 332 332 332 331 330 327 328 331 333 334 335 336 336 336 332 334 335 334 334 334 336 333 333 333 334 334 333 333 332 332 332 333 333 333 332 331 331 330 326 327 327 328 329 329 328 327 327 325 320 317 319 317 322 325 325 325 329 329 329 329
322 325 325 325 326 326 327 330 331 331 331 332 332 334 333 334 335 334 336 336 340 341 339 338 336 334 331 333 334 332 331 331 332 334 333 335 334 335 333 332 333 333 333 332 332 334 334 332 331 332 333 334 333 333 332 333 333 333 333 332 332 330 329 327 326 328 325 326 329 327 327 328 328 326 325 321 319 318 320 324 326 329 328 328 330
325 325 327 327 327 328 329 329 331 332 331 331 331 332 332 332 334 334 334 335 336 337 336 338 337 334 332 332 332 334 332 331 332 331 331 332 332 333 333 332 331 333 333 332 333 334 334 332 333 333 333 334 333 332 333 333 332 332 331 329 327 327 327 330 328 327 327 326 326 326 326 325 327 326 327 324 318 317 316 320 322 327 326 325 327
327 326 326 327 328 328 329 330 331 331 332 333 332 332 331 332 333 332 334 333 334 334 334 333 334 334 332 330 328 328 329 328 329 327 328 328 328 329 330 331 331 331 333 333 333 335 334 332 331 333 333 333 333 333 333 333 331 331 332 330 329 327 329 329 329 329 328 327 327 326 324 323 324 323 324 323 324 322 318 319 322 322 320 323 326
325 325 326 326 327 328 328 328 328 330 330 330 331 332 331 331 332 332 332 330 329 330 330 330 331 330 328 328 327 326 326 327 325 324 326 326 326 327 328 330 330 331 330 331 333 333 330 330 330 329 330 332 333 332 332 334 332 331 329 328 328 327 328 330 329 329 327 326 327 326 325 324 323 321 322 324 323 320 319 319 322 324 322 320 324
324 323 323 323 324 325 326 325 325 326 327 327 328 329 329 329 328 329 328 328 328 328 328 328 329 329 329 329 329 329 329 328 326 325 326 326 326 327 328 328 328 329 329 329 329 331 331 331 331 330 330 328 329 330 330 331 330 329 329 329 329 329 329 330 329 328 326 325 326 326 326 327 326 324 325 326 324 323 322 320 321 323 324 324 327
321 321 322 322 322 322 322 323 324 325 325 326 327 327 328 327 326 325 326 326 327 327 327 328 328 328 329 329 328 329 328 328 327 326 326 326 326 326 327 327 328 328 328 329 329 329 330 329 329 329 329 329 329 329 329 330 331 329 329 329 328 327 328 328 328 328 327 325 325 327 327 328 328 327 328 327 327 326 324 321 322 325 320 320 324
320 320 320 321 321 321 322 322 323 323 324 324 325 325 326 325 325 324 323 325 326 325 326 326 326 327 328 328 328 328 328 328 328 327 327 328 328 327 327 327 327 327 328 328 330 330 329 329 329 329 330 330 331 330 329 330 331 330 329 328 327 328 328 327 328 328 328 328 328 327 328 327 328 331 330 329 327 325 322 321 321 321 320 320 322
319 319 319 319 320 321 321 322 322 322 323 323 324 324 325 324 323 323 322 323 323 323 324 324 324 325 326 326 326 327 326 327 327 328 328 328 328 327 327 327 327 328 328 329 330 329 328 328 327 327 328 329 329 328 329 329 330 331 330 329 329 331 328 327 327 327 327 327 328 329 329 330 330 331 331 329 329 326 325 323 321 317 317 317 316
317 317 318 318 319 320 320 320 321 322 323 323 323 323 322 321 321 322 321 321 321 322 322 322 323 324 324 324 325 326 326 326 326 327 328 327 327 327 327 326 327 327 327 328 328 328 328 328 328 327 328 328 328 330 330 329 329 329 330 330 330 332 329 327 328 328 327 327 327 329 329 329 330 332 331 330 330 328 327 325 323 321 317 313 316
314 314 315 316 318 319 319 319 319 320 321 321 321 323 322 321 320 319 319 320 321 321 321 321 321 321 322 324 324 325 325 325 325 326 328 328 327 327 327 327 327 327 327 328 327 328 328 328 328 327 327 327 328 328 327 327 328 328 329 330 329 329 330 329 328 326 327 328 327 327 328 329 330 332 331 330 330 329 328 327 326 323 321 317 314
315 315 316 317 317 318 318 319 320 320 321 320 321 321 321 320 318 317 318 319 320 320 320 320 320 321 322 323 324 324 325 325 325 326 327 327 326 327 327 326 327 328 328 328 328 327 327 328 326 327 327 327 326 326 327 327 327 328 329 328 329 329 327 327 327 327 327 328 327 327 329 328 330 331 331 331 330 328 327 326 326 326 324 319 317
313 313 314 314 315 316 317 317 319 319 319 319 319 320 320 319 318 318 319 321 320 319 319 321 322 323 324 323 323 324 324 324 325 326 326 326 326 326 326 327 327 327 327 327 327 326 326 326 326 326 326 325 326 326 327 327 329 328 328 326 327 328 326 326 327 327 327 327 327 326 329 329 329 330 331 331 331 329 327 327 327 326 323 322 319
312 312 313 314 314 315 316 317 317 318 317 317 316 315 315 316 317 318 318 319 319 320 321 320 321 321 321 322 322 323 323 324 326 326 326 326 326 326 326 326 326 327 327 327 326 326 327 327 327 326 325 326 326 326 326 326 326 327 326 325 326 327 326 325 325 327 327 327 327 327 328 328 329 330 331 331 329 329 329 328 326 325 324 324 321
312 312 312 313 314 315 316 316 317 317 317 315 314 314 315 315 315 316 316 318 319 320 320 320 320 322 322 321 321 322 324 326 326 327 326 326 326 326 327 326 326 326 327 326 326 326 327 328 327 326 327 327 324 323 325 327 326 325 324 325 326 326 325 324 326 325 327 327 327 327 327 329 329 329 330 329 328 327 328 327 325 324 324 323 322
311 312 312 313 314 314 315 316 316 315 314 314 314 314 313 314 315 317 318 319 319 319 320 320 321 322 321 321 322 323 323 324 325 325 325 325 325 326 327 326 325 326 327 327 327 327 327 328 327 326 324 325 326 327 327 325 325 324 325 326 324 323 325 325 324 324 326 328 327 327 328 329 328 329 328 330 329 328 327 326 326 326 325 323 323
310 311 312 313 313 313 313 312 312 312 312 312 312 313 314 314 316 318 318 318 319 319 321 321 321 321 321 321 321 320 320 320 321 321 322 324 324 326 327 325 325 325 327 327 328 327 327 327 326 324 323 324 324 325 324 325 324 324 324 323 325 324 324 322 323 323 327 327 327 326 327 327 329 329 326 325 326 328 327 326 325 324 324 323 324
310 311 311 312 313 312 311 311 311 311 311 311 312 313 314 315 316 317 317 317 316 318 319 319 320 319 318 318 318 318 318 317 318 319 319 320 321 323 325 324 325 326 326 327 327 327 326 325 326 327 326 326 325 325 326 326 326 326 326 326 325 325 325 324 325 325 326 325 324 324 324 325 325 325 324 325 326 325 324 324 323 323 323 323 323
309 310 310 311 310 309 310 311 311 311 311 310 312 312 312 314 316 317 316 316 316 316 317 317 317 316 315 315 315 316 316 316 316 316 316 317 317 318 320 321 323 325 326 326 326 326 325 324 322 323 321 319 319 321 325 325 326 325 325 326 325 325 324 325 323 325 326 325 324 324 324 324 326 325 322 323 325 323 324 323 322 322 322 324 324
308 308 309 309 310 310 310 310 310 310 312 313 312 312 314 315 315 315 314 315 316 315 315 314 314 313 313 314 315 315 315 315 315 314 314 315 315 315 316 317 319 321 323 324 324 324 323 318 316 315 315 314 313 314 315 319 325 327 326 325 325 325 325 325 324 326 326 326 325 325 326 325 323 323 323 324 325 323 323 322 322 323 323 324 322
307 307 308 309 309 309 309 309 311 311 311 311 312 314 313 312 312 313 315 315 315 314 313 313 312 313 313 313 314 314 314 314 314 313 313 313 313 313 313 313 315 316 318 318 317 316 317 316 315 314 313 312 310 310 309 312 317 323 324 325 326 325 325 325 325 324 324 326 326 325 324 324 323 324 323 321 323 323 323 323 323 323 323 322 320
307 308 308 308 308 310 310 311 310 311 311 311 311 312 312 311 312 313 314 313 314 313 313 313 313 313 313 313 313 314 313 313 313 312 312 312 312 312 312 312 312 312 314 316 314 313 313 312 312 311 310 309 307 306 305 307 310 315 318 322 324 324 325 324 325 324 326 325 326 325 324 324 323 325 323 322 323 324 323 322 323 324 322 320 319
306 307 308 308 309 309 309 309 310 310 310 310 311 311 311 311 312 313 313 312 312 312 313 313 313 312 312 313 313 313 313 313 312 311 310 310 310 310 311 311 310 309 310 311 312 312 310 309 309 308 308 306 305 304 303 302 305 313 314 319 324 324 324 325 325 325 325 325 325 322 320 322 326 326 321 321 322 323 323 321 322 323 321 320 319
306 307 308 308 308 309 309 309 309 308 308 309 309 309 310 310 311 312 312 312 311 311 312 312 312 312 312 313 313 312 312 312 311 309 309 309 308 309 309 309 309 308 308 308 308 309 308 307 306 305 305 304 303 302 302 301 302 310 319 323 323 322 323 323 323 323 323 322 320 318 318 317 312 310 308 305 306 308 316 323 323 322 322 320 320
306 307 307 308 308 309 309 308 308 307 307 308 309 310 310 311 311 311 310 311 311 310 311 311 311 312 312 312 312 311 311 310 310 309 308 307 307 307 307 307 307 306 306 306 306 306 306 307 305 303 302 302 301 299 297 296 299 307 319 320 319 319 320 321 323 322 321 321 321 321 321 322 317 314 307 299 298 297 298 300 301 306 316 323 321
306 306 307 307 307 307 307 308 308 307 308 308 308 309 310 310 310 310 310 310 310 310 310 311 311 311 311 311 311 310 310 309 309 308 307 307 306 305 305 305 305 304 304 304 303 303 304 305 305 304 302 300 299 297 295 296 298 301 309 316 314 313 313 313 315 319 322 322 321 320 320 320 320 319 313 308 303 300 298 299 298 298 297 296 300
306 306 305 305 305 305 306 306 306 306 307 309 309 308 309 310 309 309 310 309 309 309 309 310 310 311 310 310 310 310 309 308 308 307 307 306 305 304 303 303 303 304 303 302 301 301 301 303 303 302 301 299 297 295 295 296 298 299 302 310 312 311 309 309 310 312 315 319 318 316 315 314 313 318 318 314 313 312 305 302 303 303 302 299 296
306 305 304 303 303 303 303 304 305 307 308 309 309 309 310 310 310 309 308 308 308 308 309 309 309 310 310 309 309 308 307 307 307 307 306 306 305 304 303 303 303 302 301 301 300 299 299 300 300 300 300 299 297 295 294 296 298 300 301 306 311 309 308 307 307 307 308 310 313 312 312 311 311 310 309 314 318 314 312 311 309 307 306 305 302
304 303 303 301 300 301 302 303 304 305 307 308 308 309 310 309 309 308 308 308 308 308 308 308 308 308 308 307 307 307 306 306 306 306 305 305 304 304 303 303 302 301 300 299 299 298 298 298 299 299 298 298 296 293 294 295 297 300 301 304 310 309 307 306 305 305 305 305 306 309 310 309 309 308 305 302 315 313 312 310 308 307 307 305 303
303 302 300 300 301 301 302 303 305 306 308 308 307 308 308 308 308 307 307 307 308 307 307 307 306 306 306 306 305 304 304 304 305 305 304 304 304 303 302 301 301 300 300 300 299 299 298 298 298 298 298 297 296 293 293 294 296 298 302 309 308 307 305 305 304 304 303 303 304 304 305 307 308 309 304 302 309 315 313 311 310 309 307 306 303
301 301 300 300 301 302 303 304 304 306 307 307 307 308 307 307 307 306 306 306 306 305 305 304 304 304 304 304 303 301 301 301 301 301 302 302 303 303 302 301 299 298 297 297 297 297 298 298 298 298 298 297 297 294 292 293 295 297 302 306 306 305 304 303 302 302 302 301 301 302 302 303 304 302 298 298 303 311 315 313 311 310 309 308 307
300 300 300 300 301 302 303 303 303 304 305 306 307 307 306 306 305 305 305 305 304 304 304 303 303 302 302 301 300 299 299 298 298 298 299 299 301 301 301 301 298 297 296 296 296 296 297 297 297 297 297 297 297 295 293 293 294 296 302 305 304 303 302 301 301 301 301 300 301 301 301 299 299 298 294 296 301 311 315 314 313 312 310 310 309
299 299 299 299 300 301 302 303 303 303 304 306 306 306 306 305 304 304 303 302 302 302 302 302 302 302 301 300 300 299 299 298 298 297 298 297 298 298 299 299 298 297 296 296 296 295 295 296 297 297 299 296 297 297 294 293 293 294 301 305 303 301 300 299 299 299 299 299 299 299 298 296 297 295 293 294 296 306 312 313 312 311 310 310 310
299 299 299 300 301 301 300 300 301 302 304 305 305 305 304 304 303 302 301 299 299 300 300 300 300 300 300 299 299 299 299 299 298 297 297 297 297 296 297 297 296 296 296 296 296 295 295 296 296 296 296 296 295 296 295 293 293 294 296 302 302 300 299 298 298 298 298 298 299 299 298 292 292 293 293 293 294 296 303 304 307 309 310 309 311
299 299 299 299 299 299 299 300 300 301 303 304 304 304 303 303 302 301 300 300 300 300 300 300 299 299 299 299 298 298 297 297 297 297 297 297 297 296 296 296 296 296 295 295 296 295 295 295 296 296 296 296 296 295 296 293 293 293 294 297 299 299 298 297 297 297 297 297 297 298 298 294 292 292 293 293 294 294 297 302 300 300 300 302 305
299 299 299 298 298 297 298 299 300 301 302 303 303 302 301 301 302 300 300 300 300 299 299 298 299 299 299 298 298 297 297 297 297 296 295 295 296 296 297 296 295 294 294 294 295 295 295 294 294 295 295 295 296 296 295 294 293 293 293 293 297 297 297 298 297 297 297 297 297 297 297 295 293 293 292 293 293 294 295 301 297 294 295 296 304
297 298 299 298 297 297 297 298 299 299 300 300 300 299 299 299 298 299 300 300 299 299 298 298 297 297 298 298 297 295 295 296 295 294 294 294 294 295 295 295 295 295 294 293 293 294 294 293 293 293 293 293 293 295 293 294 293 293 293 293 292 294 294 299 297 297 297 297 298 298 298 295 293 293 293 293 293 294 296 296 293 294 295 296 300
298 298 298 298 297 297 297 297 298 298 298 298 298 297 297 297 296 298 298 298 298 298 297 296 295 295 296 297 297 296 295 294 294 293 293 293 293 294 294 295 295 295 294 293 293 293 294 293 292 291 292 292 292 292 293 292 293 292 292 292 292 292 293 297 298 297 297 298 297 297 296 293 293 293 294 294 294 294 295 293 294 294 296 297 302
298 299 299 298 297 296 297 297 297 297 298 297 297 296 295 295 296 297 297 297 296 296 295 294 294 294 295 296 296 296 295 294 293 293 292 292 292 292 292 293 294 294 294 293 292 293 293 292 291 290 290 290 290 290 290 291 291 292 292 292 292 292 292 293 297 297 297 297 294 293 293 293 293 294 294 295 295 294 293 294 294 295 300 301 301
299 299 299 298 298 297 297 297 297 298 298 298 297 296 295 295 297 297 297 297 296 295 295 294 294 294 294 295 294 294 294 294 293 293 293 292 292 292 291 291 292 293 293 293 291 291 291 291 291 290 290 290 290 289 288 289 290 291 291 291 292 292 293 293 295 295 293 293 293 293 293 294 294 295 297 297 296 296 294 294 295 297 300 299 299
298 298 298 298 297 297 297 296 296 297 297 298 298 298 298 297 297 297 297 297 296 295 295 294 294 294 294 294 293 293 293 293 293 293 293 292 291 291 291 291 290 290 291 292 291 290 290 289 289 289 289 289 289 288 288 287 287 288 288 290 291 292 292 293 293 294 295 295 295 295 294 293 293 293 293 293 294 294 296 297 298 298 298 298 298
299 299 298 297 297 296 296 296 296 296 296 297 297 297 298 298 298 298 297 296 295 295 295 295 294 294 294 294 293 290 292 291 291 291 290 291 291 290 289 288 287 287 289 290 290 289 289 288 288 288 288 288 288 288 287 286 286 286 287 288 289 289 289 289 290 290 293 295 295 293 294 296 295 295 296 296 296 296 295 294 296 297 297 297 296
299 299 297 297 297 297 297 297 296 296 296 296 296 297 297 297 297 297 297 296 295 294 294 294 295 294 294 294 293 292 292 291 290 289 288 288 288 289 289 288 288 286 287 289 291 289 289 288 288 287 288 288 287 287 288 288 286 288 286 287 288 288 288 289 291 290 294 293 293 293 292 293 293 290 290 293 293 293 292 294 295 295 295 296 296
297 297 297 298 298 297 297 296 296 297 297 297 296 296 296 297 297 297 296 295 295 294 294 294 294 294 294 294 293 292 292 291 290 289 289 289 287 289 288 288 287 289 289 289 289 288 289 289 289 287 288 287 286 287 289 289 289 289 289 289 289 289 289 290 290 290 291 289 288 289 290 291 292 292 291 291 291 291 291 291 292 291 293 294 294
296 296 296 296 296 296 296 295 296 296 296 296 296 297 297 298 298 297 296 295 295 293 292 292 293 292 292 293 293 293 292 292 291 289 289 288 288 289 289 289 289 290 289 289 289 289 289 289 290 289 288 289 290 289 289 290 290 290 289 289 289 289 290 289 290 289 288 288 288 288 289 289 290 291 291 291 292 292 291 291 291 291 291 291 289
Wind_Speed
5 5 4 8 7 4 5 3 6 6 6 5 7 7 7 7 6 6 4 4 4 3 2 3 4 3 2 3 4 4 4 4 4 4 4 5 5 5 5 6 6 6 6 6 6 6 6 5 5 5 4 5 5 6 5 5 4 5 4 4 5 4 4 4 3 4 3 1 3 1 0 2 2 1 4 1 2 7 2 5 6 6 6 7 7
7 5 5 6 7 5 4 3 5 7 4 5 5 5 6 8 7 6 4 4 5 4 3 2 1 3 2 2 1 3 5 5 6 6 7 6 6 6 6 6 6 6 6 5 5 6 5 5 5 5 5 6 6 5 4 5 5 5 4 3 4 6 5 6 4 5 2 4 2 0 1 3 2 2 3 2 3 2 4 6 6 6 7 7 6
6 7 7 6 7 5 4 3 4 4 6 5 5 6 6 6 5 5 4 5 4 3 4 3 2 2 2 0 1 1 0 2 2 3 3 4 6 6 7 7 8 7 6 5 4 5 6 6 6 6 5 5 5 6 6 6 6 7 6 6 4 3 4 3 6 7 4 2 2 2 1 2 2 4 3 3 3 4 6 4 5 6 7 7 6
10 9 9 7 4 4 3 3 5 5 6 5 5 6 5 5 5 5 4 4 5 4 5 4 4 4 3 3 3 2 2 2 3 3 2 3 6 7 6 3 2 3 1 2 3 6 7 8 7 7 7 6 7 7 7 8 7 7 6 7 5 5 4 5 6 7 5 7 1 3 2 3 1 6 6 3 4 4 6 2 5 5 6 6 6
10 7 5 5 4 3 3 3 4 5 4 5 5 5 5 5 6 6 4 4 4 4 5 4 3 2 2 1 0 1 2 2 3 4 4 4 3 4 6 1 2 2 3 4 8 9 9 8 8 7 7 7 6 7 7 8 8 7 8 7 8 8 7 4 5 7 7 8 6 3 2 1 4 2 5 2 5 6 5 4 4 6 6 6 6
7 6 5 3 3 1 3 3 5 6 6 5 6 4 4 5 4 4 4 3 4 5 6 5 4 4 4 4 2 2 3 2 5 5 5 5 6 4 2 3 1 1 4 8 8 8 6 6 6 6 6 6 6 7 7 6 8 9 9 8 8 8 7 6 5 6 8 8 6 5 5 5 5 1 5 5 3 3 4 1 3 5 6 6 4
6 6 5 4 2 2 3 4 5 7 6 6 6 6 7 6 4 3 2 2 3 3 3 3 3 3 4 4 3 3 1 2 2 3 5 5 5 5 2 6 3 6 8 6 5 7 3 4 3 4 5 6 6 7 8 9 8 8 7 8 9 8 7 8 8 7 5 6 6 3 2 2 5 6 5 4 6 3 4 4 3 4 5 6 5
4 7 6 3 3 3 5 5 6 6 5 6 5 6 6 5 4 4 3 4 3 2 1 1 1 1 2 1 1 0 1 1 2 4 3 3 3 4 2 6 6 7 8 4 3 3 4 2 4 6 8 8 7 7 9 8 7 6 8 9 8 7 8 9 8 7 9 7 7 6 4 4 4 3 1 4 5 7 4 2 2 4 3 4 5
6 8 7 6 6 5 5 6 4 5 6 6 4 4 4 4 3 2 4 3 3 3 3 3 3 2 2 1 2 1 1 0 1 1 3 3 4 4 2 6 6 8 8 5 0 4 5 4 5 7 8 8 7 7 8 8 9 9 8 7 7 7 7 9 7 8 8 7 8 7 6 5 5 4 3 3 3 4 3 7 6 3 3 2 3
8 10 8 7 7 6 5 4 5 4 4 5 5 4 3 3 3 3 0 1 1 3 3 2 2 2 2 1 1 1 0 1 0 2 3 3 3 4 4 2 6 6 6 3 4 4 2 1 4 8 7 7 7 9 10 10 10 10 10 10 10 8 7 8 9 8 8 7 9 8 8 4 4 5 5 5 1 3 5 8 7 9 8 5 4
8 9 8 7 6 6 6 6 6 6 6 7 6 5 3 3 4 3 3 6 6 6 7 7 5 5 3 3 3 3 3 2 2 3 3 3 3 4 4 4 2 4 4 4 5 5 6 8 8 8 9 8 7 7 9 10 10 9 8 6 8 10 10 10 9 8 6 7 9 8 10 10 10 9 8 8 5 3 2 4 5 7 8 6 7
8 9 8 8 8 7 7 7 6 6 7 8 7 6 6 6 8 6 7 7 7 6 7 7 6 6 6 5 5 5 4 3 3 3 3 3 3 4 4 4 3 3 3 4 4 6 6 6 6 7 6 4 6 7 7 7 5 6 6 7 10 11 11 10 10 9 10 9 8 8 8 7 7 6 7 7 7 5 7 6 6 4 3 3 4
9 8 6 5 6 6 6 6 6 6 7 7 8 6 6 7 7 8 7 7 7 7 9 8 7 7 6 6 5 5 6 6 4 5 4 4 5 5 5 6 5 5 4 5 5 4 5 6 6 6 4 7 9 9 9 8 9 8 8 8 6 8 8 7 8 9 10 10 9 8 8 7 7 6 7 8 7 6 7 6 5 6 4 4 3
9 8 8 7 6 6 5 5 5 5 7 7 7 7 6 6 6 7 7 8 8 8 8 7 7 6 6 6 6 6 6 5 5 5 6 5 4 4 4 4 5 6 6 6 6 5 4 5 5 5 5 6 8 7 7 7 7 7 9 9 8 9 9 10 11 10 9 10 8 8 8 9 9 7 7 7 7 7 6 7 6 2 3 5 1
8 8 8 7 6 5 5 5 5 5 6 6 6 5 5 7 8 8 8 7 7 6 6 7 7 6 5 5 5 5 5 5 5 4 4 3 3 4 4 4 5 6 7 7 6 6 6 6 4 6 6 5 4 5 5 6 8 7 7 8 8 7 9 11 7 8 8 7 8 9 9 8 9 8 7 7 7 8 8 7 8 7 2 3 3
8 9 9 8 6 6 5 5 5 5 6 6 6 6 6 7 6 6 5 5 6 6 5 5 5 4 4 5 6 5 4 4 5 5 5 3 3 3 4 4 4 5 6 6 7 6 7 6 5 4 5 5 5 6 6 6 5 5 7 7 8 6 8 11 11 10 9 9 6 5 7 7 6 7 7 7 7 7 7 6 7 8 9 5 3
7 8 8 8 6 6 5 5 5 5 5 5 4 3 5 5 5 5 5 4 6 5 5 3 4 4 5 5 5 6 6 6 5 6 6 4 4 4 4 5 4 5 6 5 6 6 6 6 5 6 7 5 6 5 5 4 4 5 7 7 8 7 8 11 9 9 9 8 7 7 6 6 6 6 6 6 6 6 6 8 8 10 9 8 7
9 8 8 8 6 6 5 4 4 3 3 4 5 5 6 5 4 4 4 4 5 5 4 4 4 4 5 6 6 6 5 5 5 6 5 5 5 5 5 6 6 7 6 6 7 7 6 6 6 6 6 6 4 4 5 6 6 6 6 5 6 6 8 4 4 8 9 7 7 8 7 6 6 6 7 7 7 7 7 7 7 5 6 9 6
9 8 8 8 7 5 5 5 4 5 6 6 6 5 4 2 2 2 3 3 4 4 4 6 7 6 6 7 7 7 6 5 5 5 4 5 6 6 6 6 7 7 7 8 8 7 7 6 5 6 5 5 5 4 3 3 3 2 3 1 2 3 3 5 7 7 5 7 7 7 5 5 4 6 7 7 5 7 7 7 6 5 5 5 7
7 7 8 8 6 4 4 4 5 4 4 5 4 3 2 2 2 3 4 5 6 8 7 7 6 6 6 5 5 5 5 6 6 5 5 6 5 6 6 7 8 7 7 7 7 8 8 7 6 6 6 6 5 3 1 3 3 1 1 2 0 1 2 5 8 3 4 5 6 7 6 4 5 6 6 6 6 5 5 5 6 5 5 5 6
7 7 8 6 4 3 4 4 3 2 3 3 3 2 0 1 2 3 5 6 8 7 7 6 5 5 5 6 7 7 8 8 8 7 7 7 7 6 7 6 6 8 7 8 8 8 8 7 7 6 4 4 2 2 1 1 4 3 3 1 2 3 2 3 5 2 1 4 5 6 7 7 2 4 4 4 5 5 3 2 6 4 5 3 5
7 7 7 4 3 3 3 3 1 1 3 3 3 2 2 2 3 6 7 7 6 6 5 3 3 5 6 7 8 9 10 9 9 9 9 9 8 7 8 8 8 8 8 8 8 7 7 7 6 5 4 2 2 4 3 3 4 7 4 2 1 0 0 2 3 5 4 3 3 4 4 4 8 7 4 4 3 8 7 6 8 7 6 6 7
7 6 5 3 4 5 4 3 3 3 4 3 3 2 3 5 6 7 7 6 4 4 3 3 4 6 8 8 9 9 10 10 10 10 11 10 9 8 9 9 9 9 8 7 8 8 8 6 6 4 4 3 4 4 3 4 3 4 4 1 3 0 1 1 2 3 3 3 3 4 3 1 1 2 1 2 4 2 9 8 6 4 5 6 6
6 5 4 3 3 4 3 3 4 4 4 3 2 3 4 5 6 6 5 3 3 3 3 5 6 9 9 9 9 10 11 10 10 10 12 12 12 11 9 10 9 9 9 9 9 9 9 9 9 7 8 8 5 3 4 5 6 5 4 3 3 3 3 2 1 1 1 2 1 3 5 4 2 1 3 2 1 2 2 5 9 9 9 9 8
7 5 4 4 5 4 3 4 4 4 3 2 4 4 4 5 5 4 3 3 4 4 6 8 8 8 8 8 9 10 11 11 11 11 13 12 12 11 11 11 11 10 9 8 8 9 10 12 12 12 12 11 10 9 8 6 4 4 4 3 1 2 3 4 4 4 2 3 4 2 1 2 0 0 5 4 3 3 4 3 7 9 9 8 6
6 7 6 5 4 3 3 4 4 3 3 3 4 4 5 5 4 3 5 7 8 9 9 8 8 7 7 8 9 10 11 11 11 12 12 11 11 11 11 11 12 12 12 11 11 9 11 12 11 11 10 10 10 9 9 8 6 4 3 2 2 4 1 3 3 3 3 1 1 1 2 3 6 1 2 6 7 9 8 6 5 5 6 4 2
7 6 5 3 3 4 3 4 4 5 5 4 4 4 5 4 5 6 8 9 8 9 8 8 7 7 8 9 10 10 10 10 10 10 10 10 10 10 11 11 11 12 12 12 12 13 11 11 10 10 9 9 9 7 9 8 8 6 5 5 4 2 1 1 2 1 3 2 3 2 1 1 5 7 8 4 5 9 7 6 5 4 3 6 4
6 5 3 3 3 2 2 3 5 5 5 5 4 5 5 5 7 9 9 8 7 7 7 7 7 8 9 9 9 10 10 10 9 10 10 10 10 10 10 10 10 12 12 12 12 12 11 11 11 10 10 9 9 8 8 7 6 6 5 4 2 1 2 3 4 2 2 2 1 1 2 5 5 6 6 9 8 7 6 5 5 5 5 7 6
7 5 3 3 2 2 4 4 4 5 5 4 4 4 4 5 8 9 9 8 7 7 8 8 9 9 9 8 8 9 9 9 10 11 11 11 11 10 10 10 10 11 10 11 12 12 12 13 12 11 11 11 8 9 8 9 7 7 4 3 5 5 5 6 5 6 5 3 4 3 2 2 5 5 8 9 7 5 5 6 4 4 5 4 5
7 5 4 3 3 3 4 5 5 5 4 4 4 6 7 9 10 10 9 7 7 9 8 9 10 10 9 8 9 9 9 10 11 11 11 11 11 10 10 10 11 11 11 10 11 11 11 11 11 12 12 11 9 7 14 17 8 3 7 7 7 7 7 5 6 6 7 6 3 2 3 9 11 11 10 10 11 9 3 4 6 4 5 5 5
7 6 5 3 3 4 5 5 6 5 4 6 6 8 11 12 10 10 9 7 8 9 9 9 10 9 8 9 9 9 9 11 10 11 11 12 11 10 10 11 11 12 12 12 11 13 11 11 11 11 12 11 10 11 20 17 17 13 9 8 8 9 9 9 7 7 6 5 5 5 5 7 8 7 8 11 12 10 10 12 11 6 4 8 8
7 5 3 3 4 4 3 4 6 6 7 7 7 8 11 11 10 10 8 8 10 9 10 10 10 9 9 9 9 10 10 11 11 12 11 11 11 11 11 11 11 13 12 12 13 12 11 11 10 12 13 12 11 19 20 20 17 16 13 10 9 9 9 9 9 9 8 7 7 8 9 8 8 8 8 8 12 15 13 12 11 11 10 9 7
6 4 5 6 5 3 4 6 5 5 6 7 7 9 11 11 10 8 8 10 10 9 10 10 10 10 10 10 9 10 11 11 11 10 9 9 10 12 12 12 12 10 10 13 12 13 13 12 13 13 13 13 11 20 20 20 17 17 15 13 10 10 11 11 11 11 10 10 9 9 9 8 7 11 7 8 8 9 11 11 11 13 14 13 11
6 6 8 6 6 6 6 4 6 6 5 5 7 11 12 11 10 10 11 10 10 9 10 10 10 10 10 10 10 11 12 11 10 9 9 10 11 11 10 9 9 10 12 12 12 13 12 13 13 12 12 14 15 20 21 20 18 18 16 13 11 12 12 13 10 11 10 11 10 9 8 8 7 6 6 4 9 8 7 8 9 8 8 10 11
9 9 7 6 5 6 6 9 8 4 7 8 9 11 11 12 11 11 10 10 9 10 11 11 11 10 11 11 11 11 11 10 10 10 10 11 11 10 11 9 9 10 11 11 11 12 12 12 12 11 11 13 14 22 20 20 19 18 17 13 11 11 11 12 12 12 11 9 10 9 9 8 7 8 6 6 7 7 7 10 10 10 9 9 10
8 8 5 5 4 5 7 6 5 4 9 10 9 10 12 12 11 11 9 9 9 11 11 11 11 11 11 11 11 11 11 10 10 9 10 11 10 10 10 9 9 9 9 9 10 11 13 13 12 12 13 14 15 24 22 21 19 16 15 11 11 12 12 12 13 13 12 10 11 10 10 10 9 10 10 12 7 7 7 10 10 9 10 11 11
8 7 5 4 4 7 6 6 7 8 9 10 9 11 11 11 11 10 9 9 11 12 11 10 10 11 11 10 10 10 10 10 10 11 11 10 10 10 9 8 9 9 10 11 10 10 10 12 14 14 14 14 16 22 24 22 20 17 13 11 11 11 12 13 13 12 10 12 13 10 9 9 11 10 12 11 10 8 8 9 10 10 9 10 9
7 5 5 5 5 6 6 6 8 10 8 8 10 11 11 11 10 9 9 10 11 11 10 9 9 9 9 8 8 9 10 10 10 11 11 10 9 9 9 8 10 10 10 9 7 9 10 11 13 15 13 13 14 19 23 21 20 18 13 11 10 10 12 12 11 12 10 10 16 26 18 10 11 10 15 17 15 9 8 8 8 8 9 8 5
6 6 6 6 5 5 5 7 10 11 9 9 10 11 11 11 9 9 9 11 11 10 9 9 8 7 8 8 7 7 8 8 8 8 7 7 7 7 6 7 8 8 9 7 8 9 9 10 11 11 16 15 13 17 22 21 21 19 13 10 10 10 12 11 10 10 10 10 11 15 20 16 12 13 20 19 18 12 7 7 5 8 8 8 4
6 5 6 6 5 7 8 8 8 7 7 10 10 11 11 10 9 9 11 11 11 10 9 9 8 8 8 8 8 9 8 7 6 5 4 4 3 4 5 5 6 6 7 8 8 9 11 10 10 11 12 12 13 13 18 21 21 20 17 11 9 11 10 10 10 10 11 11 12 11 15 19 18 19 19 19 17 16 11 10 9 7 7 8 3
6 5 5 6 6 6 7 7 6 7 7 7 9 9 9 9 9 9 10 9 8 8 8 7 7 8 8 8 8 8 9 9 7 6 5 5 5 5 5 5 5 6 6 8 9 9 10 10 10 10 11 12 11 12 15 20 20 20 19 14 10 11 9 9 9 11 10 11 11 11 10 17 19 20 19 19 19 17 14 11 10 9 7 5 6
7 8 7 8 8 8 9 8 8 9 8 7 8 9 7 7 8 10 8 7 6 6 5 5 6 6 7 9 10 9 8 8 8 8 8 9 7 7 7 7 7 7 7 7 8 8 9 9 9 10 10 10 12 16 11 17 19 19 19 18 11 10 8 8 11 10 10 10 9 9 9 14 19 19 19 19 19 18 18 12 13 15 16 16 10
8 8 7 9 9 9 9 8 7 7 7 8 10 10 9 9 10 7 6 7 9 9 10 10 10 11 10 10 10 10 9 7 8 8 9 9 8 9 8 7 7 8 9 8 8 8 9 9 9 9 9 9 9 10 16 13 17 18 18 18 16 11 12 10 10 10 9 8 8 9 10 15 16 17 18 19 18 18 15 14 18 18 17 17 13
6 6 7 9 9 8 8 7 6 6 7 7 9 9 9 9 8 6 8 8 7 7 9 10 10 10 10 9 10 10 10 9 9 9 10 10 10 9 9 9 8 8 8 9 8 7 8 9 9 9 9 8 8 8 12 16 13 15 15 16 15 15 13 8 8 8 6 7 7 7 10 15 16 16 16 17 17 17 14 17 17 17 16 13 9
10 9 8 8 9 9 9 7 7 7 7 7 7 9 9 9 6 7 8 9 9 9 9 9 9 9 9 8 8 9 10 9 9 9 10 10 10 9 10 8 8 8 8 9 8 7 8 8 8 8 8 7 8 8 8 12 17 16 15 15 14 15 14 12 9 6 5 6 8 11 13 14 14 14 15 14 13 15 17 15 16 16 13 9 9
9 9 9 9 9 8 8 8 6 5 6 5 6 7 9 6 5 6 6 7 9 9 9 9 9 8 8 8 8 7 8 9 9 9 9 8 8 9 8 7 8 8 8 8 8 8 8 7 7 7 7 7 8 8 9 9 9 11 11 15 15 14 13 12 10 8 10 11 11 11 11 11 11 10 9 8 8 9 14 15 15 13 8 8 7
10 9 9 8 8 9 8 8 8 5 6 7 7 6 6 5 6 5 6 7 6 7 7 8 9 8 7 7 7 7 7 7 7 8 8 8 8 8 9 9 8 7 7 7 7 7 7 7 7 7 7 7 8 8 8 8 8 8 8 9 10 10 12 12 9 8 8 6 8 8 7 8 8 11 11 9 9 9 9 8 7 7 6 6 6
8 9 8 7 8 8 8 7 7 6 6 6 6 7 6 6 5 5 5 5 6 6 7 8 8 7 7 7 8 10 10 7 7 7 7 7 8 7 9 8 8 7 7 7 6 7 7 6 6 6 6 8 8 7 7 7 8 7 7 6 6 7 7 7 8 7 6 6 7 8 10 8 8 8 8 7 6 6 6 5 6 6 5 5 5
9 9 8 8 8 9 8 8 8 8 8 8 8 7 7 7 7 7 8 8 8 6 7 7 7 7 7 6 7 7 7 8 7 8 7 6 6 7 7 6 5 4 4 4 5 5 4 4 5 6 7 7 7 7 6 5 4 5 4 6 7 6 6 6 7 8 6 7 8 9 8 9 8 8 7 7 7 7 6 5 7 6 6 6 6
5 7 8 8 7 8 7 7 6 6 6 5 5 5 5 6 7 7 7 8 7 8 7 7 7 8 7 7 6 7 7 7 7 7 8 7 8 9 7 6 6 9 11 9 5 3 1 2 4 3 2 5 2 4 8 10 8 6 5 5 5 6 6 6 8 9 6 7 7 7 6 6 7 7 7 7 6 6 6 7 6 5 6 6 5
8 11 11 10 9 7 7 7 6 6 7 7 8 8 9 8 6 4 6 6 6 7 6 7 7 7 8 7 6 7 7 6 7 7 7 8 7 7 9 9 8 8 9 11 11 10 10 8 3 3 2 3 2 5 9 11 12 10 8 9 10 10 10 11 9 7 8 7 7 8 7 8 7 8 8 8 7 6 6 5 6 6 5 6 4
Wind_Direction
107 110 121 112 105 298 314 90 106 112 117 119 119 129 132 130 115 115 131 127 136 139 128 141 170 180 176 186 202 217 220 229 246 236 216 222 217 216 218 216 209 210 209 201 210 221 227 227 218 227 219 220 224 229 226 220 213 209 214 198 210 212 208 165 166 143 125 51 49 35 11 85 102 58 297 250 97 302 188 132 134 129 141 150 151
105 108 124 116 118 179 241 120 113 112 123 125 133 135 127 132 134 143 144 132 116 137 150 131 155 161 152 179 174 190 213 210 222 225 218 211 210 211 217 217 218 217 216 209 208 205 217 228 226 226 215 220 226 232 234 229 221 214 188 213 208 205 216 176 170 124 184 185 155 78 335 347 18 327 250 245 118 302 287 132 136 134 138 140 141
127 130 134 138 154 181 156 123 105 125 129 126 124 113 109 113 120 138 149 144 141 122 104 113 79 82 97 187 101 307 267 154 178 233 245 224 214 217 210 210 209 210 208 209 209 209 216 217 222 218 221 220 226 229 226 231 224 219 203 205 209 218 212 178 172 180 184 139 114 116 205 152 221 221 249 223 152 124 279 144 141 135 138 140 137
144 145 141 150 136 142 142 127 136 151 119 125 127 136 129 121 129 130 136 127 129 133 135 150 154 166 161 172 196 172 221 270 305 287 275 196 213 218 231 226 280 248 279 262 230 213 208 210 215 212 218 214 219 225 222 226 221 221 210 209 191 210 203 213 178 181 153 139 171 198 177 146 187 233 214 218 145 139 243 209 139 142 134 136 139
146 128 101 96 90 99 110 142 103 106 118 120 134 129 128 132 132 145 152 147 152 153 146 153 147 159 197 219 176 337 336 330 323 326 306 285 264 227 227 321 341 360 15 280 247 221 207 207 207 213 216 216 216 226 228 227 223 218 210 207 203 209 211 190 187 181 187 192 151 122 70 202 212 195 165 216 128 185 217 188 152 145 145 151 156
123 111 114 104 102 62 40 80 94 83 66 57 48 71 104 128 143 129 133 129 146 164 162 154 170 177 186 180 179 188 226 251 246 241 248 245 239 241 170 48 40 320 220 219 240 245 225 215 212 216 217 218 222 229 236 236 229 222 215 212 218 214 209 187 188 192 194 206 204 177 168 176 171 159 134 221 177 229 184 193 161 162 152 152 164
93 101 99 85 86 80 75 65 72 75 63 56 48 47 46 43 37 67 87 140 156 152 156 155 157 194 188 185 179 171 192 247 224 219 220 234 242 239 168 97 307 242 231 224 228 239 248 267 280 247 223 218 222 233 236 232 229 225 217 213 219 214 201 211 198 180 190 222 218 193 115 80 117 132 189 132 186 186 176 177 190 191 168 161 169
88 91 87 90 85 93 96 80 74 77 78 63 52 42 38 23 28 36 51 52 26 100 85 150 140 119 96 105 155 183 168 249 303 310 316 303 287 270 139 133 191 255 266 261 258 310 304 270 246 244 233 216 212 223 234 235 232 227 218 215 216 214 211 213 199 179 183 201 199 202 196 142 171 171 213 207 157 172 184 160 188 184 167 178 173
103 106 107 102 92 85 75 73 71 80 79 76 72 51 37 16 11 19 36 23 36 58 72 64 90 99 76 88 50 53 98 298 277 288 315 315 324 305 280 157 195 229 240 245 18 276 267 277 274 257 247 235 218 220 230 231 233 229 221 215 214 223 220 222 200 195 191 190 175 202 188 179 170 204 195 207 142 156 182 176 182 163 181 173 240
110 108 107 98 95 85 79 75 61 59 70 76 57 44 27 343 319 319 256 351 20 59 63 67 90 97 84 82 89 305 253 286 336 312 302 298 297 297 299 245 194 220 228 215 211 231 284 271 271 278 277 268 245 227 227 223 220 225 220 213 211 205 231 224 212 200 197 186 186 176 185 177 184 198 204 206 194 151 165 190 181 172 186 191 174
111 101 93 90 83 80 71 63 54 51 54 55 41 33 351 325 318 1 33 45 44 35 31 22 13 24 12 355 348 323 299 289 335 316 298 307 298 296 294 293 250 222 216 224 204 199 220 232 226 231 244 255 265 253 242 236 227 223 214 198 211 209 218 218 214 207 198 193 184 180 190 184 185 189 186 194 168 150 123 173 180 192 190 159 195
99 92 89 91 83 72 68 64 55 55 54 46 42 40 31 27 27 27 36 34 30 32 29 20 24 23 26 23 19 11 7 2 348 329 314 316 313 314 314 329 321 270 254 246 234 216 225 228 215 221 229 257 264 270 274 278 298 277 241 209 214 213 217 216 211 203 188 194 188 186 193 191 186 187 189 177 177 177 169 169 177 165 159 171 160
106 103 97 78 78 73 67 58 50 53 53 44 39 37 27 28 27 30 24 25 20 26 23 18 21 21 17 16 16 12 10 2 353 347 328 337 339 344 352 344 328 321 303 291 276 243 235 248 246 233 213 215 234 224 237 233 236 230 229 226 194 204 209 215 219 208 190 188 190 192 192 193 196 197 185 179 187 164 166 154 190 167 164 162 152
109 103 93 81 72 75 72 68 67 56 54 50 41 33 21 25 24 31 23 22 26 29 28 25 16 12 13 17 17 13 8 2 351 357 350 346 352 349 345 330 323 311 307 296 281 271 254 246 255 255 241 230 227 226 238 251 249 235 228 224 199 204 201 200 216 211 200 195 181 184 196 192 207 197 181 173 171 157 167 167 154 145 130 160 108
105 103 99 94 86 80 69 68 66 64 63 56 45 34 22 23 21 25 27 23 25 27 29 22 13 6 9 16 17 11 3 356 343 341 344 350 356 352 334 331 331 317 307 295 295 283 270 269 250 253 256 246 227 242 229 236 250 249 235 230 230 201 190 195 205 208 206 201 190 193 191 193 192 187 174 179 172 177 167 167 157 149 115 130 172
110 108 101 92 89 78 67 59 55 54 56 53 44 37 31 34 26 19 22 20 22 25 25 29 13 3 4 13 5 356 353 353 347 344 336 352 356 348 332 328 316 306 302 301 297 290 282 276 260 258 261 232 215 228 240 228 225 237 231 222 221 204 195 194 204 201 201 201 200 201 190 195 183 181 181 175 175 170 168 165 169 167 158 168 162
117 111 109 107 94 85 85 78 64 62 68 70 64 54 56 45 27 13 5 14 31 25 17 18 10 9 2 9 355 351 352 355 348 339 338 344 357 340 329 314 305 305 303 300 299 296 289 282 289 283 270 231 203 196 225 242 232 233 236 231 224 213 208 201 191 188 201 197 198 206 207 198 191 178 175 172 167 166 172 177 180 179 171 157 169
121 113 106 101 95 94 87 72 71 74 80 74 57 49 50 35 20 352 345 27 41 34 5 358 10 11 6 5 355 353 348 346 342 338 342 349 351 347 336 333 333 321 313 307 303 299 295 296 292 282 269 259 241 227 243 262 258 246 233 239 249 222 215 177 161 175 182 186 187 200 208 199 192 178 183 177 173 172 171 179 182 175 166 169 161
98 93 92 82 77 77 83 89 78 70 66 68 62 57 49 24 319 332 19 44 52 28 11 21 24 21 10 3 357 351 344 340 337 338 352 5 354 352 347 337 325 324 319 318 317 314 312 307 288 277 268 249 245 239 226 222 222 227 208 194 236 279 229 189 193 182 166 171 183 203 207 199 181 189 183 184 174 171 177 176 170 149 152 153 150
91 91 84 84 76 57 59 69 65 68 78 80 77 73 48 309 319 38 45 46 41 35 35 30 19 19 357 353 351 343 344 346 343 349 4 4 356 353 348 343 334 323 324 324 326 326 324 320 306 287 280 267 247 250 278 275 228 170 261 277 324 83 4 210 132 141 178 178 171 192 207 208 197 201 189 184 172 152 163 184 162 140 159 159 140
101 93 92 91 88 70 68 68 71 113 120 111 127 137 220 23 60 61 67 51 46 46 38 30 10 357 4 5 0 357 2 358 358 7 11 2 1 357 355 338 328 338 333 336 335 333 330 326 309 302 306 323 255 225 251 27 85 101 105 36 52 38 80 24 84 80 186 190 196 190 195 211 216 235 203 192 148 147 143 68 100 155 186 151 126
101 97 97 116 128 115 103 111 202 98 99 106 100 71 20 356 39 63 61 56 54 45 41 15 357 4 14 19 23 22 18 15 19 18 18 17 9 6 2 351 350 341 339 338 338 335 334 326 316 326 333 343 20 59 60 60 62 73 58 346 6 54 186 167 124 180 196 183 177 214 210 204 189 223 228 225 152 153 143 175 170 171 158 169 167
104 106 110 139 135 129 139 163 146 119 120 113 106 82 43 51 64 62 58 56 65 57 47 15 12 22 27 29 28 24 22 19 19 15 14 13 9 9 12 2 355 348 344 343 344 348 347 335 343 346 326 355 23 25 31 57 64 77 73 172 279 340 278 50 251 181 155 152 181 222 220 77 2 201 74 40 32 111 165 172 131 126 168 191 179
113 118 170 163 136 125 138 151 116 88 86 103 109 97 66 60 68 70 63 56 52 65 42 28 35 41 31 27 27 24 24 22 21 18 17 11 12 7 5 6 356 356 359 359 3 4 10 12 13 16 11 3 6 24 42 50 43 64 44 54 48 37 31 120 276 314 98 147 83 37 36 53 65 157 130 76 121 148 203 169 155 164 192 193 188
147 157 138 106 95 91 97 113 121 115 114 97 77 80 70 72 75 73 63 46 49 48 40 38 43 41 33 29 26 24 25 24 26 23 19 14 13 8 3 2 358 0 359 1 9 12 21 22 20 18 18 15 12 17 26 33 54 57 39 2 85 64 39 23 45 338 1 48 65 107 126 268 138 138 120 178 187 140 231 222 152 168 191 197 186
102 105 96 97 126 153 149 143 132 124 118 94 83 77 77 80 77 74 50 43 53 54 49 45 39 37 31 30 29 30 28 27 30 27 21 17 15 13 10 9 6 8 8 13 13 19 29 32 27 20 12 11 13 18 21 19 25 65 76 90 45 69 138 61 47 332 50 105 192 195 114 96 80 80 205 189 165 179 195 201 184 175 184 174 104
94 92 90 113 137 149 167 148 129 120 114 104 89 87 89 88 73 55 58 63 63 62 52 47 40 38 36 31 31 33 31 31 31 28 23 21 20 18 15 12 11 13 18 24 23 28 25 26 25 23 15 2 2 4 19 9 4 16 22 15 28 51 148 129 143 163 173 176 163 151 107 194 165 171 191 172 173 186 192 192 169 161 160 100 108
100 102 131 167 180 178 178 133 127 129 121 109 112 112 109 101 82 70 67 65 62 64 58 54 48 46 41 37 38 37 36 33 33 30 28 25 22 21 18 17 16 17 16 23 24 26 24 24 20 22 16 10 360 8 8 351 350 360 6 2 357 322 257 173 170 252 21 16 331 112 158 204 222 191 176 183 201 165 179 159 127 129 135 144 155
131 154 173 187 211 186 127 122 117 109 112 121 119 111 92 79 75 73 70 63 59 60 57 54 51 46 40 40 43 44 37 36 34 34 31 27 25 22 22 24 24 24 20 19 22 20 22 21 17 20 16 16 9 13 5 341 329 359 0 355 27 35 51 74 76 81 102 93 35 17 301 263 215 219 172 174 182 167 162 141 146 125 131 139 140
145 158 170 183 164 119 106 100 87 86 94 94 77 67 68 72 70 67 63 55 56 55 49 56 54 46 38 36 45 45 41 38 38 37 34 31 27 22 23 26 26 27 24 19 19 22 26 21 14 14 17 16 13 7 354 357 340 333 31 44 47 40 45 62 68 70 73 73 75 76 51 58 53 44 27 21 24 14 349 138 131 148 146 143 164
148 161 170 171 165 126 119 113 98 92 83 69 76 71 78 80 74 69 63 54 55 52 48 53 57 50 41 41 46 44 39 42 41 39 37 35 31 29 28 31 33 31 26 21 19 21 19 20 22 19 18 14 14 4 359 4 5 27 49 45 44 42 40 45 50 54 54 40 20 17 29 36 41 47 52 60 72 57 56 74 79 85 130 171 170
154 161 153 133 111 96 90 116 120 110 90 84 78 75 82 85 81 75 68 60 55 50 49 51 53 51 45 45 50 46 44 46 44 42 42 40 38 36 34 33 36 36 33 31 29 21 16 16 18 24 26 15 10 6 6 8 12 26 45 52 47 47 45 42 37 39 37 41 35 28 28 27 21 34 64 65 69 70 62 68 75 79 70 48 44
147 120 88 60 46 48 58 71 79 83 89 89 88 82 88 88 83 80 72 62 58 51 48 49 50 51 48 49 49 46 47 48 47 46 44 45 43 42 37 34 36 34 35 36 30 27 24 21 24 25 22 15 9 6 9 11 16 23 34 56 49 50 52 42 35 31 32 41 39 23 18 22 9 17 58 87 83 78 73 54 62 62 53 50 53
120 93 72 56 37 28 19 45 63 56 74 90 83 85 85 85 83 77 69 64 62 54 49 46 48 51 50 48 47 47 49 47 46 45 44 44 43 44 40 37 38 37 38 36 30 30 28 27 25 25 23 22 21 4 11 15 21 27 30 48 54 52 56 52 41 32 24 34 35 29 23 22 7 11 357 30 68 65 64 57 42 44 49 40 44
101 87 73 59 48 26 23 26 4 31 69 64 68 85 89 81 76 73 70 71 66 62 55 48 46 49 52 48 46 48 49 48 47 47 47 47 47 45 41 36 36 38 39 37 30 30 29 28 25 25 30 30 19 10 15 20 23 32 32 43 50 50 54 52 46 43 38 29 21 18 23 22 25 33 359 355 48 59 74 79 67 53 52 54 46
99 95 85 74 55 49 44 27 9 39 68 65 71 78 82 83 79 77 74 68 68 66 60 53 48 45 51 51 48 46 44 41 40 40 44 46 46 47 45 37 41 41 42 42 38 37 34 30 27 27 33 30 21 17 19 22 23 29 39 47 45 44 45 46 43 35 28 26 27 20 18 20 23 34 40 66 79 84 69 74 72 68 63 60 52
91 94 96 89 73 62 50 38 41 44 65 77 77 76 80 81 80 78 77 72 68 67 64 61 56 52 51 53 54 53 51 46 43 43 41 39 39 40 46 41 47 45 43 40 38 37 34 35 33 31 31 31 27 17 19 20 19 23 44 45 44 46 45 46 41 35 29 30 29 18 20 22 29 21 7 34 62 81 72 70 74 73 70 64 64
90 85 82 76 69 65 58 59 55 56 56 76 79 80 81 80 79 79 76 73 70 71 72 68 64 59 55 57 59 60 60 55 52 51 50 48 48 46 46 42 51 49 47 42 40 41 39 37 38 37 30 34 31 21 22 22 22 20 39 51 51 51 47 46 44 38 32 34 37 35 34 27 35 19 24 29 32 58 71 74 73 66 63 66 55
108 111 102 90 88 90 79 65 62 59 60 74 78 79 81 80 77 75 73 72 69 66 62 62 61 58 58 56 54 56 60 60 60 59 57 59 54 55 53 53 59 59 57 51 45 47 47 42 39 40 36 38 34 26 23 26 29 25 33 47 49 55 53 44 43 39 36 36 32 33 29 25 31 33 36 35 30 33 43 48 64 86 74 62 22
113 108 113 104 86 71 61 63 63 61 69 79 78 82 85 87 85 83 81 79 76 76 75 73 71 70 69 63 57 54 49 48 47 46 44 51 49 51 49 56 57 59 61 53 48 46 49 44 37 37 38 35 34 32 26 29 33 34 35 51 48 54 51 48 46 42 38 32 32 29 29 24 29 38 43 42 38 42 49 37 28 40 63 65 31
121 116 100 89 83 86 85 80 67 61 67 80 88 90 93 94 91 86 86 92 97 95 91 86 83 78 71 65 57 55 50 43 38 35 34 34 33 39 38 46 51 48 56 56 52 49 49 45 38 37 37 36 34 32 28 30 35 37 37 45 53 50 49 51 51 47 41 38 31 28 29 25 32 34 39 42 42 39 45 54 42 45 16 1 40
106 100 91 87 84 78 73 65 60 62 65 76 82 80 76 80 84 86 90 89 85 83 78 72 66 63 64 62 57 50 49 48 39 38 39 35 24 29 37 41 42 45 49 52 53 48 49 47 42 38 36 32 29 33 31 31 34 39 40 41 53 45 39 56 55 51 44 39 34 31 30 28 34 37 37 37 39 43 40 46 39 38 32 34 35
104 100 97 95 90 84 80 80 71 68 70 77 84 83 83 80 78 78 81 83 85 80 74 69 63 58 58 63 63 58 55 52 49 46 50 46 36 36 32 33 39 41 43 45 46 48 46 44 42 36 33 31 24 27 31 32 32 37 38 41 41 42 40 57 61 55 44 37 30 33 29 32 37 37 39 38 36 36 42 37 36 35 33 31 36
106 106 98 93 93 90 86 80 75 73 73 76 84 88 85 83 81 82 77 78 80 82 82 76 70 68 67 67 66 62 58 53 51 52 53 52 45 42 43 39 39 44 44 42 36 41 49 45 41 33 28 23 19 23 23 25 26 31 37 38 39 36 31 46 59 66 54 46 38 36 37 35 36 35 35 37 38 37 37 34 34 33 33 33 36
110 105 98 97 102 103 101 90 85 85 84 86 88 92 89 86 89 88 87 85 84 87 87 85 83 82 80 78 74 70 63 56 51 50 53 49 46 43 49 36 44 45 46 46 38 36 45 45 41 36 23 19 15 17 19 15 17 17 23 26 30 34 35 36 42 30 31 47 60 56 49 43 37 34 30 30 30 29 31 35 35 34 33 35 31
109 106 103 105 102 99 98 97 90 88 84 83 87 94 96 100 96 94 100 101 101 101 98 96 94 92 90 87 79 72 69 65 58 53 55 50 53 49 54 44 47 49 46 48 42 39 37 36 40 31 24 15 15 20 16 12 8 10 10 11 16 22 25 31 40 37 32 31 30 37 46 49 48 42 40 36 31 24 23 27 28 30 34 33 27
112 114 112 107 110 108 107 106 103 90 87 83 83 83 94 96 93 93 93 100 102 105 107 110 109 103 94 88 82 73 64 55 53 57 55 53 50 52 52 47 41 41 46 50 48 46 42 36 34 20 17 15 18 18 13 8 9 7 7 2 10 10 13 19 17 12 18 27 33 32 36 36 43 49 53 53 47 32 30 26 28 28 31 30 30
106 111 109 109 106 108 106 102 98 93 91 91 87 87 85 81 79 80 81 79 81 94 109 119 115 110 105 98 91 85 82 71 60 52 47 47 48 51 55 46 37 23 37 47 53 52 50 45 35 20 17 22 18 14 11 3 353 358 358 7 12 18 14 10 12 358 1 19 32 27 29 23 24 24 24 28 31 37 37 30 26 26 30 31 32
93 97 100 103 104 103 106 108 111 113 111 110 109 102 93 88 85 85 85 81 78 73 73 82 102 111 106 101 100 98 94 93 82 69 59 51 45 38 53 59 40 42 37 43 65 65 65 64 57 40 35 24 19 7 343 313 304 318 351 14 18 13 9 10 8 17 22 26 30 32 26 25 26 26 21 20 15 18 18 19 26 20 15 21 26
102 101 96 93 91 96 98 98 100 100 98 96 98 99 105 109 106 97 85 81 78 72 67 66 76 94 114 113 108 104 102 96 96 95 88 66 49 61 57 61 34 14 31 37 51 76 73 103 79 25 55 78 20 298 302 325 341 357 6 14 20 27 35 35 15 31 55 47 35 40 28 30 26 28 26 16 8 10 10 9 3 5 10 16 14
110 102 100 99 101 98 94 90 88 81 78 78 77 76 72 64 61 73 93 100 91 79 72 71 70 74 90 111 120 118 112 109 107 103 94 92 69 34 36 45 47 36 32 32 38 40 41 41 64 48 322 242 287 333 354 359 1 0 10 16 13 13 13 18 23 40 35 43 40 45 34 32 26 33 35 26 15 15 3 4 354 354 4 3 353